Location: Newark
(59.4564°N, 26.6917°E)
Time: 03:22:51
(UTC+00:00)

SR - Pass Details

Date: 23 November 2019
Orbit: 573 x 882 km, 66.7° (Epoch: 13 December)

Event Time Altitude Azimuth Distance (km) Brightness Sun altitude
Rises 12:15:17 0° 200° (SSW) 3,258 ? 5.5°
Reaches altitude 10° 12:17:42 10° 194° (SSW) 2,378 ? 5.3°
Maximum altitude 12:22:55 44° 123° (ESE) 1,148 ? 5.0°
Drops below altitude 10° 12:28:28 10° 54° (NE) 2,529 ? 4.6°
Sets 12:31:06 0° 48° (NE) 3,487 ? 4.4°
